Flag for Brazil Weather past 2 weeks in Campinas, São Paulo, Brazil

Now
59 °F

Partly cloudy.


Feels Like: 57 °F
Forecast: 58 / 68 °F
Wind: 12 mph from Southeast

Location: Campinas Aeroporto

Current Time: Jul 28, 2014 at 3:26:06 AM

Latest Report: Jul 28, 2014 at 3:00 AM


Visibility: N/A

Pressure: 30.30 "Hg

Humidity: 88%

Dew point: 55 °F

Location of CampinasLocation

Historic Weather in Campinas — Graph

°F

Campinas temperature yesterday

Maximum temperature yesterday: 64 °F (at 1:00 PM)
Minimum temperature yesterday: 57 °F (at 8:00 AM)
Average temperature yesterday: 60 °F

Past Weeks' High & Low Weather Summary

 TemperatureHumidityPressure
High81 °F (Jul 17, 2:00 PM)100% (Jul 25, 2:00 AM)30.36 "Hg (Jul 25, 2:00 AM)
Low50 °F (Jul 20, 7:00 AM)24% (Jul 21, 4:00 PM)30.01 "Hg (Jul 24, 2:00 AM)
Average63 °F68%30.20 "Hg
* Reported Jul 13 2:00 AM — Jul 28 2:00 AM, Campinas, Weather by CustomWeather, © 2014

Note: Actual official high and low records may vary slightly from our data, if they occured in-between our weather recording intervals... More about our weather records

Advertising

Campinas weather history for previous 24 hours

 ConditionsComfort  
Time TempWeatherWind HumidityBarometerVisibility
2:00 AM
Jul 28
59 °FPassing clouds.12 mph88%30.33 "HgN/A
1:00 AM59 °FPassing clouds.10 mph88%30.33 "HgN/A
12:00 AM59 °FPartly cloudy.14 mph88%30.33 "HgN/A
11:00 PM
Jul 27
59 °FClear.13 mph88%30.36 "Hg10 mi
10:00 PM59 °FClear.12 mph88%30.33 "Hg10 mi
9:00 PM59 °FClear.12 mph88%30.33 "Hg10 mi
8:00 PM59 °FClear.12 mph88%30.33 "Hg10 mi
7:00 PM59 °FClear.12 mph88%30.30 "Hg10 mi
6:00 PM61 °FPartly cloudy.13 mph83%30.30 "HgN/A
5:00 PM63 °FMostly cloudy.14 mph77%30.30 "HgN/A
4:00 PM63 °FMore clouds than sun.14 mph77%30.27 "HgN/A
3:00 PM64 °FCloudy.15 mph73%30.27 "HgN/A
2:00 PM64 °FMostly cloudy.10 mph73%30.27 "HgN/A
1:00 PM64 °FCloudy.15 mph68%30.27 "HgN/A
12:00 PM63 °FMostly cloudy.14 mph77%30.30 "HgN/A
11:00 AM63 °FMostly cloudy.13 mph77%30.30 "HgN/A
10:00 AM61 °FPartly sunny.12 mph83%30.30 "HgN/A
9:00 AM59 °FMostly cloudy.12 mph88%30.27 "HgN/A
8:00 AM57 °FLight rain. Fog.13 mph94%N/A2 mi
7:00 AM59 °FOvercast.10 mph88%30.24 "Hg4 mi
6:00 AM59 °FOvercast.8 mph88%30.21 "Hg4 mi
5:00 AM59 °FOvercast.12 mph88%30.21 "Hg4 mi
4:00 AM59 °FOvercast.12 mph88%30.21 "Hg4 mi
3:00 AM59 °FFog.10 mph88%30.21 "Hg3 mi
Weather by CustomWeather, © 2014

See weather overviewHow to use our weather pages